This is the latest recevied weather packets stored in our database for station/object EB2EMZ-3. If no packets are shown the sender has not sent any weather packets the latest 10 day(s).
| Time | Temp. | Humidity | Pressure | Rain* | Wind** | Luminosity | Snow |
|---|---|---|---|---|---|---|---|
| 1787736029 | 27.22° C | 73% | 1013.7 hPa | 0 mm | - | - | - |
| 1787735727 | 27.22° C | 73% | 1014 hPa | 0 mm | - | - | - |
| 1787735427 | 26.67° C | 74% | 1013.6 hPa | 0 mm | - | - | - |
| 1787735127 | 26.67° C | 76% | 1013.3 hPa | 0 mm | - | - | - |
| 1787734827 | 26.11° C | 76% | 1012.9 hPa | 0 mm | - | - | - |
| 1787734527 | 25.56° C | 76% | 1012.4 hPa | 0 mm | - | - | - |
| 1787734228 | 25.56° C | 77% | 1011.9 hPa | 0 mm | - | - | - |
| 1787733928 | 25° C | 77% | 1011.6 hPa | 0 mm | - | - | - |
| 1787733627 | 25° C | 78% | 1011.3 hPa | 0 mm | - | - | - |
| 1787733328 | 25° C | 78% | 1011.6 hPa | 0 mm | - | - | - |
| 1787733028 | 25° C | 78% | 1011.9 hPa | 0 mm | - | - | - |
| 1787732728 | 24.44° C | 77% | 1012.2 hPa | 0 mm | - | - | - |
| 1787732428 | 24.44° C | 77% | 1012 hPa | 0 mm | - | - | - |
| 1787732128 | 24.44° C | 77% | 1012.5 hPa | 0 mm | - | - | - |
| 1787731828 | 24.44° C | 77% | 1012.4 hPa | 0 mm | - | - | - |
| 1787731528 | 24.44° C | 77% | 1012.2 hPa | 0 mm | - | - | - |
| 1787731228 | 24.44° C | 77% | 1012.3 hPa | 0 mm | - | - | - |
| 1787730928 | 25° C | 77% | 1012.5 hPa | 0 mm | - | - | - |
| 1787730631 | 24.44° C | 77% | 1012.8 hPa | 0 mm | - | - | - |
| 1787730328 | 25° C | 77% | 1012 hPa | 0 mm | - | - | - |
| 1787730028 | 25° C | 77% | 1012.8 hPa | 0 mm | - | - | - |
| 1787729728 | 25° C | 77% | 1013.5 hPa | 0 mm | - | - | - |
| 1787729428 | 24.44° C | 77% | 1012.4 hPa | 0 mm | - | - | - |
| 1787729128 | 24.44° C | 77% | 1012.9 hPa | 0 mm | - | - | - |
| 1787728828 | 24.44° C | 78% | 1012.3 hPa | 0 mm | - | - | - |
* Rain latest hour (hover to see other rain measurements)
** Current wind speed in m/s (hover to see current wind gust speed)